Wind_Speed
20 20 21 21 21 21 21 21 21 20 21 21 21 21 21 21 21 21 20 20 22 24 24 23 23 22 21 20 19 18 18 19 18 22 26 22 16 17 17 16 14 13 12 11 8 6 4 4 7 8 9 12 14 16 17 19 21 16 5 4 5 4 5 8 8 7 6 7 7 10 16 13 10 15 17 16 16 18 19 23 25 26 29 29 28 32 31 30
20 20 20 21 21 21 21 21 21 21 21 21 21 22 21 22 22 22 21 21 22 23 23 23 22 21 20 18 18 17 18 18 19 26 25 15 13 17 19 18 17 14 12 9 7 5 3 5 11 12 14 17 17 19 19 16 15 10 2 2 2 6 10 10 8 6 7 10 8 11 17 15 13 16 15 11 10 13 16 22 30 32 32 31 30 30 29 29
20 20 20 21 21 21 21 21 21 21 21 21 21 22 22 22 22 22 21 21 22 23 23 22 21 20 18 16 16 16 16 17 21 23 13 8 15 19 19 19 18 15 12 9 5 5 5 10 14 15 18 18 18 21 17 9 7 8 4 2 3 10 14 17 14 8 10 14 11 11 15 14 14 16 14 11 10 11 14 20 28 31 32 32 30 28 27 25
20 20 20 21 21 21 21 21 21 21 22 21 21 21 22 22 22 22 22 21 22 23 22 20 20 18 16 15 14 14 15 16 15 12 6 5 16 19 19 18 16 15 12 8 6 8 8 13 16 20 19 14 18 19 11 8 6 6 4 2 7 11 11 21 24 14 12 16 15 14 14 12 11 11 13 15 10 8 15 23 28 30 33 33 30 28 26 24
20 20 20 21 21 21 21 21 21 21 22 22 22 22 22 22 22 22 22 21 21 24 22 19 19 17 16 14 13 13 11 7 4 5 6 4 13 18 18 16 15 14 11 8 9 11 11 13 15 21 18 9 13 13 9 12 6 3 2 9 12 12 9 18 26 18 14 19 18 14 11 11 13 13 16 17 7 6 18 27 30 32 33 33 31 28 27 25
20 20 20 21 21 21 21 21 21 21 22 22 22 22 21 22 23 22 22 21 21 23 22 18 18 16 16 14 13 12 6 3 2 3 6 1 9 16 16 16 15 13 12 10 12 14 11 12 14 18 14 7 9 9 10 10 5 2 5 15 18 18 11 15 22 19 18 20 16 13 14 16 14 12 15 16 6 12 26 30 30 31 31 30 30 27 26 24
21 20 21 21 21 21 21 21 21 21 22 22 23 22 22 21 22 23 22 21 21 23 22 18 16 16 16 14 14 10 10 14 10 5 5 2 7 13 15 16 15 14 14 12 15 16 12 13 15 18 12 7 11 10 13 11 10 4 2 9 17 20 15 16 19 17 18 20 20 20 18 16 13 9 12 15 11 20 31 30 29 29 28 27 26 25 25 23
21 21 21 21 21 21 21 21 21 21 22 22 23 23 23 21 22 23 22 22 21 22 21 17 16 17 16 14 13 10 15 16 8 5 5 4 5 9 15 17 17 16 15 15 18 17 13 15 18 19 11 7 14 11 11 8 7 6 3 6 14 19 18 19 20 22 23 23 24 22 16 15 16 13 12 15 18 27 31 29 29 28 26 25 23 24 24 23
21 21 21 21 21 22 22 22 21 21 21 22 23 23 24 22 22 23 22 22 20 21 20 16 16 17 15 13 9 8 13 9 2 5 7 6 6 8 14 18 18 18 16 16 19 18 14 17 18 18 12 11 18 9 7 2 4 7 10 8 9 18 19 20 22 23 24 22 22 18 13 16 20 16 12 16 23 27 30 29 28 28 25 23 22 23 23 21
22 21 21 21 21 21 22 22 21 21 21 22 23 23 24 23 22 22 23 23 20 20 19 16 16 15 14 11 5 4 7 3 1 5 8 10 8 9 14 18 19 18 17 16 19 19 18 19 20 21 17 15 16 4 9 5 5 9 14 8 7 16 18 20 25 26 25 22 21 15 11 16 18 11 8 15 22 25 28 28 27 27 25 22 22 23 21 19
22 22 22 22 21 22 22 22 22 22 22 22 22 23 24 24 23 23 23 23 20 18 17 16 15 14 13 9 8 7 6 1 1 3 9 13 12 12 16 19 18 17 17 17 20 20 18 19 22 22 15 11 9 5 7 8 10 10 14 9 8 13 15 21 24 25 23 17 21 18 12 15 15 9 8 17 22 23 26 27 26 27 25 24 24 25 21 19
22 22 22 22 22 22 22 22 22 22 22 22 22 23 24 24 24 24 24 23 21 17 16 16 14 14 11 12 17 13 9 5 3 5 9 9 9 12 17 19 18 17 17 17 18 17 15 19 24 24 15 12 6 5 5 9 14 14 14 7 5 8 11 18 18 23 19 14 24 20 10 10 9 10 14 19 21 21 23 23 24 26 24 25 25 25 22 21
23 22 22 23 23 22 22 22 22 22 22 22 22 23 25 25 24 24 24 23 23 18 14 15 14 14 10 13 17 10 8 6 7 6 11 8 6 10 17 18 15 15 17 16 14 14 15 17 21 25 22 17 5 6 6 11 14 16 9 4 5 4 6 14 17 23 17 16 28 17 5 6 7 14 20 21 22 21 21 21 22 24 25 26 26 24 22 23
23 23 23 23 23 23 22 22 22 22 22 22 22 22 25 26 25 25 25 25 24 17 12 13 13 11 9 14 13 7 12 7 5 9 12 11 7 11 18 18 14 14 15 15 15 15 16 17 20 22 21 18 9 2 5 6 10 10 6 4 5 3 4 12 15 17 12 19 31 14 4 7 7 14 22 23 23 22 21 21 22 22 24 27 25 24 23 23
23 23 23 23 23 23 23 22 23 23 22 23 22 22 25 26 26 26 27 26 23 17 12 10 10 9 12 18 11 5 12 10 10 11 13 12 9 13 19 18 15 16 16 16 16 16 17 18 19 17 17 21 15 5 2 1 4 4 4 3 3 3 4 9 11 11 8 15 24 12 5 6 8 14 22 23 23 23 21 21 22 21 23 24 23 23 23 22
23 23 23 23 23 23 23 23 23 23 23 22 22 22 24 27 27 28 29 25 19 14 9 4 5 6 9 12 7 5 13 15 13 11 14 15 13 15 17 16 14 15 16 17 16 16 17 18 17 15 15 15 10 4 1 2 1 2 5 3 3 6 4 6 8 11 11 10 12 12 6 6 7 14 22 23 22 23 21 21 23 23 23 24 22 23 24 23
23 24 23 23 23 23 24 23 23 24 23 22 22 22 23 27 29 30 27 18 11 7 4 3 1 6 10 9 7 10 16 17 15 14 15 16 17 16 16 16 16 16 17 17 17 18 18 18 13 10 11 8 4 4 1 2 2 2 4 3 3 5 4 6 7 12 15 8 7 12 9 7 9 14 21 23 22 21 20 21 23 25 25 26 25 24 24 24
23 24 23 23 23 23 23 23 24 24 23 22 22 22 24 27 28 24 16 7 4 2 2 6 4 4 10 13 12 13 16 17 17 17 17 17 20 19 18 18 17 16 17 16 18 19 16 12 8 3 5 5 5 4 4 5 6 7 6 3 2 2 4 7 5 9 14 8 6 9 9 11 11 13 18 21 22 20 18 20 23 24 26 28 26 25 25 25
24 24 23 23 23 22 22 23 23 23 24 22 20 22 24 24 21 12 3 2 3 2 4 7 10 5 9 14 14 10 13 15 15 17 19 20 22 22 20 18 17 17 15 9 10 15 10 5 5 3 4 5 7 7 6 8 11 13 11 7 6 5 6 7 6 8 12 8 8 7 9 14 11 11 14 19 23 22 19 19 20 21 24 27 25 25 26 25
25 25 24 23 22 23 22 21 22 22 23 22 20 20 19 17 13 4 2 8 13 14 18 16 17 20 23 27 21 8 11 15 15 18 21 21 22 22 21 20 18 15 11 5 7 14 11 4 4 6 7 9 11 12 10 10 13 16 14 10 10 10 8 10 9 9 10 7 7 10 13 14 12 10 13 20 21 21 21 19 19 20 22 24 23 24 26 25
25 25 25 24 23 22 21 21 20 19 21 20 19 19 16 14 10 7 13 19 22 24 26 25 22 27 31 34 28 14 12 15 18 20 19 23 23 18 19 20 13 8 8 8 8 12 11 5 6 8 10 13 12 12 12 10 10 12 12 10 10 9 9 13 12 10 11 7 5 12 14 13 13 11 13 18 16 17 22 20 20 22 21 22 23 24 26 24
25 25 25 25 23 22 21 20 18 17 17 16 17 16 15 15 11 14 20 20 24 29 26 27 29 30 32 32 31 25 15 14 16 21 21 25 25 16 16 16 8 5 7 9 7 6 7 6 8 11 12 13 13 12 11 11 10 8 7 8 8 8 8 12 14 12 11 5 6 12 11 10 12 11 13 15 13 16 26 26 24 26 23 23 23 23 26 24
25 25 25 25 24 23 21 19 16 14 13 13 15 14 13 20 18 18 21 15 21 31 28 26 29 28 30 30 29 27 18 15 13 21 25 25 25 20 17 12 8 8 8 9 7 5 5 6 10 13 13 14 14 13 11 9 9 8 6 5 7 10 9 8 10 14 12 6 8 12 9 8 10 9 10 17 18 18 26 30 29 30 28 26 25 24 25 25
25 25 25 25 24 23 20 19 15 11 13 13 11 9 15 24 22 18 17 12 13 26 32 29 27 26 29 28 26 23 20 20 17 20 26 26 25 21 16 13 10 8 8 11 12 9 5 7 13 14 14 15 14 12 10 8 6 7 9 6 6 12 12 10 11 13 10 6 10 12 5 4 8 8 7 13 18 17 23 28 28 31 32 29 27 26 27 27
24 25 25 25 25 23 21 20 13 9 13 12 6 11 17 19 17 17 13 10 7 17 26 23 23 26 29 27 24 20 19 20 21 22 26 29 25 16 13 16 12 7 10 13 13 10 7 12 16 15 13 15 12 10 11 8 5 6 9 8 4 6 5 11 15 12 7 5 10 12 5 3 7 9 8 8 10 12 17 21 24 30 33 31 30 29 31 31
24 25 25 24 24 24 22 16 11 11 15 12 7 13 17 14 14 16 9 5 4 9 12 12 16 19 25 25 21 21 16 14 21 24 27 29 27 18 10 12 10 8 11 12 9 6 7 13 15 14 13 14 12 9 10 10 6 5 6 8 6 5 4 8 15 11 6 5 10 14 7 3 5 8 9 8 7 9 12 14 19 29 33 33 33 32 34 34
24 24 25 24 23 24 23 17 14 16 17 14 12 16 17 13 13 15 6 2 5 7 7 13 14 14 22 23 21 18 7 9 19 24 29 29 28 23 11 7 8 8 10 8 6 5 8 13 15 15 14 11 10 8 9 10 7 5 6 6 6 7 9 11 16 9 6 6 8 12 9 4 4 9 8 8 7 6 8 9 13 24 32 33 33 33 35 36
24 23 24 23 21 21 22 22 20 18 14 12 13 15 15 13 12 10 3 2 5 4 6 10 11 14 19 23 26 18 7 12 14 18 31 32 28 23 11 8 9 10 11 8 6 7 9 12 14 16 14 9 7 8 10 10 7 7 7 5 6 9 10 9 12 7 6 7 6 8 9 4 3 7 6 7 8 7 9 10 9 17 29 33 32 33 35 36
24 23 24 23 20 18 20 24 22 14 8 7 10 10 9 9 9 5 1 3 6 2 6 9 10 13 16 19 24 21 14 14 10 15 30 32 29 22 10 11 11 10 13 11 7 8 10 15 16 15 12 8 7 9 11 8 6 6 8 7 6 7 7 3 7 5 4 5 6 7 9 4 2 5 6 6 8 10 12 10 8 14 26 32 32 33 35 37
24 23 23 24 21 18 20 21 14 8 7 8 8 6 7 6 4 3 3 3 5 2 6 8 8 12 14 12 15 18 14 13 12 19 27 29 31 26 14 16 14 8 10 11 10 9 12 20 20 12 10 10 10 12 12 9 6 4 7 7 7 6 2 2 4 5 4 1 6 6 7 6 3 5 8 8 12 15 12 9 10 14 24 32 34 35 35 37
24 22 22 23 22 19 21 17 8 7 10 10 9 9 8 3 2 2 4 5 5 3 6 5 7 12 14 10 10 14 13 11 12 16 17 17 21 19 11 12 11 6 6 8 9 12 12 15 12 9 11 15 13 13 12 10 8 6 6 4 2 4 3 4 3 4 3 4 5 4 4 5 4 5 10 14 17 18 14 13 14 14 22 32 34 34 35 37
24 22 21 21 22 22 22 16 8 9 11 10 12 12 7 2 3 4 6 5 4 5 7 7 8 10 13 12 10 12 12 9 10 11 12 10 9 10 9 7 5 5 5 6 7 9 11 9 7 8 12 13 12 10 8 7 6 6 6 2 3 1 2 2 3 3 1 5 4 3 6 7 5 7 16 20 17 18 18 17 19 19 22 28 31 32 34 38
23 22 21 19 21 23 21 15 11 10 9 9 10 7 3 3 4 7 8 6 4 5 5 9 13 12 12 12 10 12 12 10 11 11 12 11 8 9 11 11 9 6 5 6 7 6 7 9 9 10 9 9 9 6 5 5 5 5 5 3 4 3 1 1 1 0 3 5 6 8 7 6 5 5 17 23 19 20 23 23 27 28 26 27 30 31 33 38
23 22 22 20 22 22 19 15 11 10 8 6 4 3 4 5 4 8 11 10 10 9 8 5 12 14 12 11 10 11 10 9 13 12 12 12 9 8 11 14 15 10 4 6 7 6 7 7 9 8 6 8 9 6 6 6 6 6 6 6 4 4 4 3 3 3 5 5 7 11 7 4 6 5 12 21 19 21 26 27 30 31 31 31 31 31 32 34
23 22 22 22 22 19 16 13 11 10 9 7 3 3 6 6 5 8 10 11 11 11 14 15 10 13 10 9 10 12 10 8 13 12 10 12 9 8 9 11 15 12 6 5 4 6 7 6 9 12 9 13 11 9 8 9 6 6 7 7 5 5 4 3 4 5 5 5 4 6 4 4 5 4 6 16 16 19 25 27 26 27 30 30 28 30 31 31
25 22 21 21 21 17 12 11 11 12 12 8 3 5 7 6 7 8 8 9 10 9 12 15 10 10 8 7 9 13 12 9 12 10 8 11 11 10 10 9 13 14 9 6 3 4 6 4 9 15 11 13 16 13 11 9 5 3 6 6 4 5 4 4 5 5 4 5 3 3 3 1 0 3 4 15 16 16 19 20 21 26 31 30 27 29 33 33
27 25 23 20 18 15 11 10 10 14 15 8 4 6 6 8 11 12 11 11 14 13 11 9 4 4 7 8 7 11 13 10 10 8 6 10 10 12 12 11 14 16 14 10 4 4 6 4 4 14 10 11 18 16 14 11 6 3 5 6 3 5 4 4 1 3 4 4 3 4 6 4 3 1 5 14 17 15 14 14 19 25 27 27 26 27 32 36
29 28 23 15 9 11 14 11 10 15 14 6 7 8 7 10 15 18 17 16 17 15 12 8 5 5 6 9 8 11 13 9 8 7 7 8 8 13 14 11 15 18 18 16 8 4 7 4 4 14 13 10 14 14 11 11 10 6 6 8 8 4 5 3 1 2 4 3 3 4 4 4 4 5 8 11 15 15 12 12 15 17 19 24 28 28 31 37
26 22 17 9 2 12 18 14 13 16 11 4 7 7 7 11 18 23 24 20 15 13 11 10 8 8 9 7 8 11 12 11 9 7 7 6 6 14 17 11 13 18 19 18 9 5 6 4 4 12 16 10 9 9 7 6 7 6 4 4 7 5 3 4 4 4 4 3 2 3 3 2 3 7 12 11 12 13 10 10 11 13 19 27 32 32 31 35
19 12 10 4 2 11 18 17 14 12 7 6 7 7 8 11 16 24 29 22 14 11 10 11 11 10 9 8 7 8 11 12 10 7 7 8 8 12 18 14 11 17 22 20 12 7 6 4 3 8 13 10 5 7 8 5 5 5 4 4 5 5 3 2 3 3 5 3 2 2 2 4 5 5 10 11 11 12 10 9 8 10 14 22 31 32 31 31
12 7 6 3 7 11 16 16 9 6 5 6 7 9 11 12 14 19 26 25 18 16 16 15 14 12 10 9 7 5 6 10 11 8 6 10 10 7 14 19 13 14 19 17 13 9 5 4 4 5 9 7 5 9 11 9 6 5 4 4 5 5 5 3 4 3 3 4 4 4 1 4 5 2 7 10 11 10 11 11 9 11 12 16 26 28 27 29
9 7 6 7 7 11 15 9 5 7 6 7 9 13 14 14 14 15 20 23 19 18 18 16 15 14 11 8 6 6 4 5 10 11 7 10 13 8 14 25 21 16 14 11 11 12 7 4 4 5 7 7 7 13 15 12 10 6 5 6 5 4 4 4 3 4 3 3 4 4 3 3 6 3 8 7 9 12 16 17 12 13 15 17 25 28 24 24
9 16 15 4 5 12 12 5 6 6 6 10 14 18 18 15 13 13 16 18 15 13 13 12 12 13 10 8 7 7 7 5 6 10 10 10 14 16 21 30 27 18 12 8 9 12 10 4 3 3 5 8 9 11 16 15 11 7 7 8 7 5 4 4 5 5 4 5 4 3 3 4 6 3 7 8 12 15 18 18 11 10 16 20 22 25 23 22
16 22 20 9 10 14 10 4 5 5 6 11 14 17 19 17 15 15 13 13 13 11 10 10 11 11 8 7 8 7 6 5 5 7 9 8 13 22 28 32 29 17 10 10 9 10 8 4 4 2 1 6 7 6 9 14 10 6 5 7 9 11 11 8 5 1 2 5 6 5 3 5 4 3 7 9 12 11 13 18 14 14 20 19 16 20 21 21
16 14 15 11 10 15 14 9 7 6 7 11 13 13 16 15 17 20 18 16 17 15 11 12 11 9 9 9 10 9 6 6 7 5 5 6 8 19 27 33 30 18 14 20 20 12 7 4 5 5 4 6 7 5 6 8 7 5 5 7 9 14 14 9 4 2 3 5 6 5 3 4 4 6 8 8 9 9 11 17 16 15 19 17 15 18 19 18
9 5 7 11 11 12 16 18 17 10 7 10 9 10 14 13 15 22 21 17 20 20 16 15 12 10 11 12 11 10 9 8 9 6 4 5 3 5 16 29 31 22 21 30 27 13 4 4 5 7 7 7 7 7 8 8 7 8 9 12 10 11 13 10 5 4 5 5 5 6 8 8 5 7 9 8 8 8 8 13 14 13 15 17 18 20 19 18
5 4 5 8 10 11 9 13 14 9 10 11 6 8 15 13 10 15 16 14 18 20 15 11 10 9 11 12 11 10 11 9 9 6 6 4 5 10 12 18 27 28 24 25 25 13 3 5 8 8 10 10 8 7 7 11 11 11 14 15 14 12 12 11 9 7 7 7 5 8 14 14 10 10 11 10 8 8 7 12 18 16 13 14 17 21 23 21
5 8 10 10 6 5 6 10 12 12 15 15 8 9 16 16 12 10 9 12 17 18 10 7 11 13 14 14 10 9 12 11 5 3 6 5 6 11 14 12 15 28 22 14 17 11 3 4 9 8 9 11 9 9 8 10 11 10 13 17 17 16 15 12 10 7 8 8 6 9 16 17 13 12 12 10 10 11 11 13 17 15 10 7 8 13 20 22
9 9 11 12 9 9 11 16 19 17 16 13 9 10 14 15 15 12 8 9 13 13 8 6 12 15 14 15 11 6 7 7 4 3 5 6 7 6 7 11 5 22 20 10 10 8 2 3 4 4 4 6 8 11 9 6 6 6 8 10 12 15 15 13 12 8 7 8 8 10 13 12 11 12 13 14 15 17 17 16 15 13 10 6 3 5 10 14
12 10 12 15 13 13 14 15 15 13 11 11 9 10 13 14 15 14 10 8 10 9 7 10 15 15 15 17 11 2 4 6 7 7 6 6 6 2 2 7 5 10 15 10 6 4 4 4 2 3 0 4 6 11 11 6 4 6 7 7 7 9 10 10 11 10 8 7 7 12 12 9 9 12 13 16 20 21 18 18 16 13 9 7 6 6 5 5
11 11 14 14 10 10 11 11 10 9 8 9 8 8 11 13 13 12 10 10 13 11 9 11 13 13 16 15 7 4 6 7 8 11 11 8 7 5 2 6 9 5 9 9 5 5 5 3 1 3 1 3 5 8 8 8 8 10 11 8 7 8 7 6 6 7 9 10 9 10 10 8 8 8 9 13 17 15 12 14 16 12 9 7 5 3 2 2
13 16 16 12 8 8 9 8 8 8 7 9 12 13 13 13 14 13 9 8 13 16 16 15 15 13 10 6 5 9 11 11 10 12 15 14 15 14 10 14 16 9 2 2 4 6 6 4 2 3 2 2 5 8 6 3 6 10 9 6 7 8 6 5 4 4 8 13 11 8 7 7 6 8 10 9 10 10 10 14 15 13 10 7 4 0 3 6
Wind_Direction
337 337 338 338 339 340 340 341 340 339 338 337 337 337 337 335 335 336 333 331 330 328 324 320 314 309 304 302 298 294 291 285 279 274 268 258 247 238 232 233 235 236 244 248 255 266 266 281 278 271 261 251 242 241 237 232 239 237 183 139 198 189 156 144 140 162 156 125 123 124 115 110 107 112 129 136 134 141 126 110 118 123 124 130 132 136 139 141
336 336 337 337 338 338 339 339 339 338 337 337 335 335 336 334 333 334 333 331 330 329 325 320 315 310 307 303 299 296 291 288 284 276 269 263 244 228 222 225 228 230 238 244 249 252 245 268 270 260 241 239 238 233 234 227 226 236 143 152 210 116 137 137 120 146 135 121 130 127 121 122 129 137 146 135 127 132 113 106 111 112 119 127 133 139 140 139
335 335 336 336 337 337 337 337 338 337 336 336 334 334 334 333 333 332 333 331 330 330 325 320 316 311 309 304 301 297 293 295 290 285 282 254 230 216 212 218 223 226 233 239 239 213 229 269 274 273 253 238 238 231 223 204 201 229 216 173 117 104 125 130 121 133 137 133 126 108 106 108 128 147 147 122 113 113 105 110 112 117 126 131 137 142 144 143
334 334 335 335 335 335 336 336 336 335 335 334 333 333 332 332 331 330 332 330 330 329 325 321 317 314 311 306 301 297 301 305 296 306 341 226 215 207 207 212 214 220 226 229 223 199 214 253 262 274 266 241 243 239 213 185 195 233 221 147 128 114 118 133 138 151 145 123 107 101 96 84 97 119 127 120 108 96 110 122 126 130 134 136 140 144 148 148
333 333 334 334 334 335 335 335 334 334 334 333 332 332 331 331 330 330 331 328 330 329 324 319 318 316 310 305 299 293 305 324 316 343 351 248 207 201 204 206 207 213 215 215 214 202 213 245 264 277 275 252 247 249 218 191 184 285 72 78 96 103 93 121 133 144 134 116 115 124 110 88 85 82 100 111 115 140 130 131 133 135 138 142 144 144 146 146
333 333 333 333 334 333 333 333 333 332 332 331 331 330 330 330 329 329 329 328 328 328 324 316 318 316 308 304 294 286 283 270 242 325 350 316 196 195 198 201 204 207 206 207 205 204 224 253 265 270 273 264 249 250 236 196 124 350 83 86 92 99 97 113 127 141 137 124 121 118 103 99 94 80 94 95 81 138 137 135 136 137 140 144 146 147 150 149
332 333 332 333 333 332 332 332 332 330 331 330 329 329 329 329 329 328 328 328 326 328 324 313 315 313 309 298 288 285 261 257 259 280 334 333 191 186 192 199 199 199 202 202 202 207 227 253 257 256 259 252 250 245 226 196 123 122 127 111 117 116 128 135 128 126 118 112 112 111 108 109 105 97 111 104 90 118 130 135 136 139 141 143 148 151 152 150
331 331 332 332 331 331 331 331 331 329 329 329 328 328 328 328 328 326 326 326 325 327 322 312 311 311 308 291 291 298 269 267 270 258 278 274 216 196 193 195 196 196 199 199 203 208 225 253 254 253 260 248 260 253 208 193 114 123 92 100 120 116 122 125 113 102 98 100 110 116 114 114 116 108 107 112 111 117 126 132 135 139 141 144 150 152 151 148
329 329 330 330 330 330 330 330 329 328 327 327 327 326 326 327 327 325 324 324 323 325 322 311 306 311 310 287 289 299 275 283 306 239 258 258 247 225 203 195 195 195 198 204 207 208 228 252 248 249 256 256 270 261 163 137 57 103 98 94 109 113 125 126 111 101 98 98 103 107 106 112 121 115 98 107 115 121 128 133 138 141 142 146 152 151 150 151
327 327 327 328 328 328 328 328 328 327 326 326 325 324 324 325 326 324 322 322 322 324 322 310 303 312 308 279 260 277 273 335 44 232 252 258 257 236 212 198 195 196 199 207 211 210 226 242 244 253 252 260 278 233 150 137 102 103 113 129 132 132 145 129 108 103 103 102 107 108 109 117 122 119 105 118 123 127 131 135 142 144 144 151 151 149 154 161
325 325 325 326 326 327 327 326 326 325 324 324 324 323 322 322 323 322 322 322 319 322 320 309 303 310 304 262 236 232 218 240 325 256 251 251 255 234 210 196 193 198 200 208 213 214 228 242 254 264 256 264 278 173 149 134 128 130 131 136 144 148 138 113 107 111 110 113 127 128 128 127 122 117 118 127 130 132 135 139 146 147 149 154 151 151 159 166
324 324 323 324 324 324 325 324 325 324 323 323 322 322 320 320 321 320 322 322 318 318 316 310 302 308 305 254 244 226 189 197 214 280 277 256 251 226 205 197 193 198 202 209 217 220 237 253 261 267 269 279 275 133 147 157 138 132 134 127 153 164 127 120 123 125 126 136 141 137 125 122 117 127 132 130 132 136 139 142 147 149 151 154 155 159 164 170
323 323 322 322 322 322 323 322 323 323 321 321 321 321 318 318 319 318 320 321 317 311 310 309 299 307 300 260 264 239 186 176 178 251 279 274 256 210 198 193 191 203 204 208 220 228 245 259 263 268 276 284 292 109 169 175 129 115 131 136 156 188 139 132 130 135 141 142 145 146 111 115 120 137 144 143 142 144 146 149 151 153 154 155 159 164 169 176
322 322 321 320 320 320 321 321 321 320 320 319 319 320 317 316 316 316 317 317 314 305 300 301 292 303 286 273 291 237 195 188 208 246 250 256 244 194 190 184 189 214 216 217 230 240 250 259 262 269 277 279 284 136 185 172 118 118 150 156 146 195 159 128 133 149 150 149 157 154 93 134 138 143 149 152 154 152 152 153 155 156 153 155 161 166 172 180
321 321 320 319 318 318 319 319 319 318 318 317 318 319 316 314 313 313 314 315 312 298 288 292 286 296 288 284 297 216 205 221 247 239 220 232 222 192 191 183 190 212 220 227 235 244 254 262 260 263 276 282 284 263 228 93 117 131 143 166 155 171 161 125 140 155 136 164 167 137 96 149 143 152 153 157 160 157 157 157 159 160 154 157 165 170 175 180
320 319 319 318 317 316 317 318 317 316 316 316 317 318 315 312 312 312 313 313 309 290 274 294 308 304 287 284 297 247 231 226 224 214 209 217 209 200 196 189 197 209 217 226 232 245 260 270 262 251 262 278 282 260 281 71 145 133 130 176 179 168 168 127 154 154 133 173 166 121 128 154 146 161 158 163 167 160 161 164 165 163 162 167 171 175 178 179
319 318 318 317 316 315 315 317 317 314 314 315 316 318 315 312 312 311 310 308 304 284 231 169 358 305 269 256 263 240 223 215 211 211 215 212 205 204 197 196 204 208 215 224 233 245 258 263 255 245 254 263 259 232 196 155 204 138 137 191 181 168 159 148 177 157 145 180 159 126 138 143 150 162 162 169 168 163 167 169 169 168 170 173 172 177 179 179
318 317 317 316 315 313 314 317 316 313 313 315 316 318 317 314 314 312 308 302 298 318 195 186 168 308 262 238 244 236 214 208 212 218 216 206 204 203 196 197 201 207 214 222 234 241 247 244 227 242 263 257 256 221 173 182 178 144 162 203 166 169 169 165 187 158 157 176 151 130 135 138 149 157 165 173 165 166 176 171 171 171 171 171 173 177 177 182
318 317 316 315 314 313 314 316 316 315 313 313 315 316 316 318 320 317 303 215 229 286 296 223 194 230 266 255 260 246 219 212 211 220 212 199 203 205 196 196 199 206 212 212 220 224 230 228 204 241 256 241 248 235 208 191 172 156 169 186 171 186 191 177 193 176 161 151 143 146 133 138 155 159 167 178 170 167 174 172 170 168 166 169 174 177 179 184
319 317 316 315 315 312 313 315 317 318 315 315 318 319 321 325 326 335 318 279 277 286 285 260 227 238 265 276 277 247 206 212 204 207 205 192 200 207 195 193 199 205 211 205 194 203 211 232 209 217 234 237 241 241 239 210 179 167 172 184 181 184 188 182 194 184 156 142 153 149 137 145 161 162 170 183 178 165 168 174 171 167 167 170 174 176 180 182
319 318 316 316 314 312 313 314 318 319 316 314 316 317 315 315 309 310 312 298 292 292 283 273 254 247 262 274 275 256 205 201 198 196 196 189 197 206 189 188 200 203 209 216 208 199 203 231 227 218 232 240 244 247 250 242 210 186 179 184 184 187 187 182 187 175 155 157 157 140 139 150 159 166 176 185 185 167 169 172 169 171 172 175 178 179 179 178
320 317 316 316 314 314 313 314 320 319 311 307 309 307 308 317 313 304 307 299 293 292 283 277 268 257 261 266 269 261 215 184 197 193 189 190 197 200 174 179 206 198 201 218 217 196 198 225 223 221 232 238 250 254 247 249 250 236 200 183 184 193 188 183 183 167 154 162 154 142 141 151 162 170 174 185 196 175 171 173 171 174 176 179 184 180 176 176
320 318 317 316 315 315 313 315 321 314 301 300 302 300 321 336 330 309 302 294 290 290 282 270 261 254 256 255 258 255 212 179 200 192 187 192 197 194 173 174 212 198 193 213 216 203 197 218 218 220 228 230 243 249 244 246 252 257 237 198 181 189 185 185 180 159 155 167 148 142 139 145 160 172 174 187 197 182 173 174 174 177 178 182 188 181 178 181
320 318 316 315 315 315 314 316 315 304 292 292 302 320 340 339 336 330 312 295 288 284 278 265 250 246 247 245 251 244 199 181 199 192 190 195 197 198 186 181 201 205 199 206 220 229 210 203 216 225 226 227 234 235 236 243 247 256 254 240 180 186 184 166 160 152 152 161 140 130 118 143 167 178 185 188 192 184 172 172 173 177 179 183 189 186 183 186
319 317 315 315 315 314 315 316 310 298 288 281 315 340 329 325 336 353 334 299 276 274 278 261 239 240 236 241 248 223 183 184 201 192 190 198 199 197 192 188 193 213 205 201 216 233 223 201 210 227 229 228 235 227 223 229 254 273 262 258 214 197 183 140 145 145 144 180 156 133 114 241 199 185 189 191 191 183 171 172 173 174 177 180 186 187 186 187
319 316 314 314 315 315 315 313 303 299 288 273 299 315 304 301 326 347 340 291 265 262 264 218 207 222 220 231 231 195 176 194 203 194 189 198 204 199 192 188 190 213 205 200 213 226 225 204 205 228 229 226 234 234 222 212 229 267 251 255 265 288 304 150 154 154 154 197 173 150 148 223 219 200 194 182 179 185 180 179 175 173 175 180 184 185 185 186
317 314 313 312 315 317 314 307 301 303 297 284 281 284 287 294 317 335 337 268 256 240 207 174 178 196 201 210 200 180 176 187 194 199 187 189 206 211 211 187 179 214 209 197 207 207 218 206 202 224 231 226 226 231 230 207 208 255 233 219 231 267 268 185 169 172 163 181 187 167 149 125 198 211 193 161 166 194 200 197 182 175 177 180 184 184 183 185
314 312 310 308 311 316 310 303 304 310 308 297 288 284 291 304 319 334 348 266 273 232 166 162 173 184 188 190 187 189 202 175 179 201 186 183 201 211 218 207 188 210 218 213 204 190 216 217 200 210 225 235 223 220 231 214 200 239 235 217 208 228 248 200 173 185 166 169 205 179 137 99 219 210 173 157 178 205 212 213 201 182 180 181 184 183 181 185
312 310 309 306 305 307 301 297 303 316 323 304 294 296 313 329 331 328 238 259 291 275 153 160 166 177 183 183 186 193 204 194 184 188 180 180 198 210 227 229 212 206 218 234 231 190 209 227 217 207 209 226 240 235 236 217 188 236 254 269 263 233 243 214 164 171 142 161 218 197 161 155 230 202 174 167 196 209 208 209 209 195 185 182 185 186 182 183
309 308 309 303 300 300 295 292 298 319 326 318 310 319 341 339 316 272 214 239 287 248 156 158 156 175 189 189 186 188 199 212 198 180 174 175 193 211 232 238 234 221 214 227 238 227 213 219 225 222 195 197 226 241 240 220 184 219 256 260 275 276 289 64 127 119 87 197 236 219 190 180 187 197 184 183 200 203 197 196 204 203 190 185 186 187 183 182
306 307 307 300 297 296 289 287 306 319 312 316 318 327 337 317 217 229 226 248 281 222 165 164 157 172 189 194 185 182 195 220 203 181 173 170 188 206 222 235 235 232 227 216 225 243 232 215 218 227 205 191 206 233 232 217 191 198 234 227 247 298 353 21 9 60 86 242 244 244 241 214 196 200 199 204 204 193 188 192 197 201 194 187 186 186 184 182
307 307 303 296 291 284 278 282 307 302 285 278 288 308 323 247 206 229 237 260 270 187 171 178 174 176 187 191 187 181 190 222 220 192 175 168 183 199 206 220 208 201 226 215 211 232 240 232 202 213 224 203 199 220 212 204 204 204 223 187 129 270 346 10 336 16 224 247 252 264 267 244 223 196 195 205 206 191 188 190 192 198 194 187 187 187 185 185
310 308 302 292 283 277 275 282 289 282 270 258 274 297 291 228 220 223 236 256 243 200 179 171 176 185 185 180 187 186 185 211 225 203 176 173 182 195 208 221 218 206 203 207 208 207 233 253 218 199 221 215 202 198 180 196 209 200 207 175 136 141 125 162 182 211 256 275 267 255 262 256 259 215 191 197 202 191 184 185 192 197 194 189 194 194 190 187
313 312 303 290 279 274 275 278 272 268 262 236 248 264 225 234 242 235 239 242 248 263 276 223 178 182 188 184 191 194 187 207 220 200 167 172 189 194 202 219 225 224 212 208 213 198 206 239 228 208 187 187 204 204 175 181 197 201 197 180 164 154 159 181 157 169 227 257 249 240 238 224 245 248 193 191 188 175 176 185 193 197 198 197 200 200 193 186
317 313 302 291 281 275 272 265 247 240 228 203 208 231 217 226 238 245 246 246 255 265 271 264 212 179 189 192 196 202 196 206 220 208 171 168 188 196 194 212 223 224 216 207 217 215 213 217 220 220 185 166 196 227 201 187 202 205 184 180 195 187 168 192 189 178 208 236 239 230 222 196 226 268 173 168 165 162 175 187 188 190 199 202 200 199 195 188
319 314 304 291 279 272 258 240 227 214 195 182 210 223 220 231 230 237 247 249 256 260 270 267 225 180 184 188 200 205 196 203 216 210 180 170 182 197 195 201 216 224 222 205 202 202 214 247 203 196 192 177 189 216 217 204 208 181 168 179 206 214 179 164 202 205 208 236 243 230 251 238 76 345 125 144 153 168 176 181 181 186 197 201 198 197 196 193
324 322 309 290 275 264 234 211 210 197 180 174 231 229 221 235 240 248 260 268 276 286 297 291 249 201 189 176 204 205 186 193 210 202 185 178 182 194 198 200 208 222 231 221 229 203 194 264 190 170 197 210 191 204 228 226 216 170 167 170 175 258 237 136 148 226 199 223 232 219 238 222 150 144 160 150 157 175 178 175 184 190 192 195 196 196 197 197
327 326 312 300 276 234 209 204 203 185 172 184 241 242 238 238 241 248 259 274 289 297 298 293 303 284 221 179 190 200 181 179 198 200 196 183 178 187 193 204 201 211 232 227 226 242 199 226 209 173 192 209 185 197 234 241 225 193 170 166 158 223 242 162 133 199 177 201 250 258 254 220 172 156 166 165 165 174 175 170 178 183 183 189 197 200 197 195
329 325 313 324 298 205 197 199 195 177 172 208 229 232 244 246 248 254 265 280 295 300 293 288 288 273 251 211 186 191 181 179 192 201 199 183 179 186 188 203 197 197 224 230 220 249 223 214 227 185 183 183 172 189 218 240 231 201 177 175 169 188 203 178 189 178 161 178 221 274 300 269 231 166 163 170 165 162 155 149 157 164 173 181 189 197 196 191
331 317 303 338 173 196 186 183 180 171 190 230 229 236 243 247 253 257 264 272 278 278 279 287 284 272 269 260 232 206 182 182 196 200 190 179 178 186 187 197 199 190 210 226 222 229 225 206 235 193 179 174 169 192 200 198 201 193 196 189 180 194 173 157 234 190 155 152 174 224 280 282 264 177 156 153 147 147 143 137 139 148 166 177 181 190 195 191
338 301 286 118 154 185 172 171 182 190 223 239 237 248 249 252 258 259 261 263 264 261 258 265 270 271 277 270 259 253 193 187 199 199 183 179 184 194 190 194 200 190 201 221 223 222 219 187 200 189 181 187 181 181 192 209 206 175 185 193 178 181 157 148 277 256 159 154 170 174 186 276 273 164 136 142 141 143 141 134 145 160 164 175 180 185 190 192
347 278 252 123 142 188 168 164 219 208 219 244 241 249 252 255 262 263 265 268 268 263 254 252 258 262 270 280 297 312 287 216 204 199 186 182 190 199 193 195 200 194 194 213 218 220 229 197 187 191 186 191 189 177 182 212 226 186 182 214 202 171 138 145 229 240 213 186 175 149 132 263 272 148 123 133 132 130 136 138 154 178 167 160 174 181 182 190
326 284 267 203 186 213 192 198 246 211 226 247 245 252 253 252 259 259 263 266 267 269 260 255 263 260 258 270 278 285 285 275 242 217 203 191 193 196 192 194 198 198 197 203 208 218 227 204 173 206 187 185 201 191 179 196 219 206 195 203 196 186 181 194 209 198 200 197 170 127 145 239 271 191 131 128 128 129 141 147 144 153 148 140 156 173 179 191
315 297 281 240 197 217 227 239 236 231 248 244 243 251 251 251 255 254 258 260 258 267 268 261 266 263 259 266 260 262 267 269 282 251 225 215 199 193 191 192 195 199 196 185 182 198 214 197 157 166 169 177 205 221 185 189 202 210 216 200 181 182 195 220 241 187 209 204 162 135 178 229 253 176 139 132 132 131 145 158 155 140 138 137 144 161 173 190
318 307 288 267 222 226 240 243 245 257 257 253 253 249 248 251 251 249 255 263 262 269 274 269 276 289 296 290 272 267 271 276 298 301 267 261 213 190 190 190 192 199 194 182 178 175 186 197 169 164 174 177 196 221 199 187 185 189 242 240 191 178 190 212 227 177 233 228 177 146 169 211 194 149 149 146 138 130 139 157 166 152 144 149 156 160 165 175
318 305 294 303 301 276 255 243 248 259 264 270 273 263 253 247 245 246 247 253 260 264 268 270 280 298 291 283 279 271 264 262 263 276 318 313 282 218 205 194 188 195 196 185 180 172 163 193 173 158 174 187 199 206 179 164 171 180 211 242 232 196 189 187 180 197 203 198 207 187 153 162 182 160 163 168 149 145 150 149 145 136 140 153 162 172 177 174
290 300 327 335 328 318 288 250 250 264 271 268 271 277 271 261 254 248 241 249 257 255 261 275 282 287 280 282 294 286 275 267 251 273 341 344 340 331 283 219 190 189 196 188 183 177 127 180 183 166 181 196 213 231 192 172 184 185 191 218 235 227 211 196 194 205 171 149 223 209 157 159 192 185 175 181 166 160 168 152 143 139 146 160 166 177 183 178
284 317 336 348 330 315 327 302 295 301 291 280 266 261 267 266 265 259 255 276 271 253 250 281 276 271 274 281 293 293 284 281 270 330 1 359 354 348 319 284 195 179 183 185 184 180 112 169 188 178 193 207 217 235 220 188 193 198 196 205 213 219 226 222 207 189 156 160 222 210 170 170 190 186 177 183 180 173 164 151 148 146 147 160 168 177 185 187
332 333 331 339 323 293 302 303 300 299 295 293 283 262 261 258 258 263 264 280 280 257 230 250 266 266 269 270 274 291 300 303 327 5 18 9 356 356 326 312 213 171 173 173 177 181 152 169 170 154 206 237 241 241 235 201 197 219 216 212 209 211 220 226 227 222 198 192 196 182 178 183 184 181 187 189 173 157 144 133 129 131 135 146 171 184 195 203
353 346 328 325 311 294 299 302 303 304 297 297 290 268 263 256 252 258 257 268 291 285 256 253 260 261 261 264 265 304 18 10 2 344 359 17 356 348 324 314 289 182 179 172 152 163 193 209 171 117 247 293 268 251 240 210 224 265 254 244 239 231 226 223 229 236 241 241 198 170 176 200 196 183 185 176 152 137 134 135 134 139 154 175 201 221 230 230
357 346 333 324 305 301 313 313 307 304 294 296 294 278 273 269 267 268 262 264 275 284 292 290 283 270 259 263 285 15 18 12 3 341 339 340 315 311 313 297 301 262 191 172 131 138 173 204 146 113 88 302 289 273 244 203 210 240 243 244 255 261 255 229 213 214 223 234 223 186 182 211 212 171 150 147 139 131 136 139 134 133 139 142 155 186 224 251
353 344 340 330 302 299 313 311 306 303 301 315 323 314 290 276 281 282 273 269 274 282 294 306 313 301 267 264 348 358 346 349 357 342 329 314 303 309 309 293 294 296 250 156 112 135 149 137 114 108 108 272 288 296 285 220 203 228 235 242 256 271 289 290 287 277 241 226 213 196 190 190 167 130 117 116 116 116 118 115 107 102 100 90 78 161 286 294
Height
1529 1528 1527 1525 1524 1523 1521 1520 1519 1517 1516 1514 1512 1511 1510 1509 1507 1505 1504 1502 1500 1498 1496 1494 1492 1491 1490 1489 1488 1487 1486 1485 1485 1483 1479 1478 1482 1484 1485 1487 1488 1489 1490 1491 1492 1493 1492 1492 1491 1490 1491 1490 1491 1489 1487 1485 1483 1485 1491 1504 1512 1510 1509 1503 1504 1506 1504 1506 1504 1502 1504 1507 1511 1511 1512 1514 1516 1517 1519 1521 1524 1529 1532 1536 1539 1542 1545 1546
1529 1528 1526 1525 1524 1522 1521 1519 1518 1517 1515 1513 1512 1510 1509 1507 1506 1504 1503 1501 1500 1497 1495 1493 1491 1489 1488 1488 1487 1486 1485 1483 1482 1479 1475 1477 1480 1481 1483 1485 1486 1488 1489 1490 1491 1492 1492 1491 1490 1490 1490 1488 1488 1485 1483 1482 1481 1484 1488 1500 1503 1498 1499 1495 1496 1498 1499 1504 1502 1502 1504 1506 1510 1510 1512 1514 1516 1516 1519 1523 1526 1530 1534 1538 1541 1543 1545 1546
1528 1527 1526 1524 1523 1521 1520 1519 1517 1516 1514 1513 1511 1509 1508 1506 1505 1503 1502 1500 1499 1497 1494 1492 1490 1488 1487 1486 1485 1485 1483 1482 1479 1475 1473 1475 1476 1478 1481 1483 1485 1487 1488 1490 1491 1491 1491 1490 1490 1489 1488 1486 1485 1483 1482 1481 1480 1480 1486 1500 1497 1487 1490 1492 1493 1496 1498 1500 1500 1502 1504 1505 1508 1509 1510 1513 1516 1517 1520 1524 1526 1531 1535 1538 1541 1543 1546 1548
1528 1526 1525 1523 1522 1521 1519 1518 1516 1515 1513 1512 1510 1509 1507 1505 1504 1502 1501 1499 1498 1496 1493 1491 1489 1488 1487 1485 1485 1484 1483 1482 1477 1472 1472 1472 1473 1476 1479 1481 1483 1486 1487 1489 1489 1490 1489 1489 1489 1486 1486 1484 1482 1481 1480 1480 1480 1478 1484 1493 1488 1481 1488 1492 1493 1495 1497 1499 1500 1503 1505 1507 1508 1509 1510 1512 1519 1522 1522 1525 1526 1530 1534 1537 1541 1543 1546 1548
1527 1526 1524 1523 1521 1520 1519 1517 1516 1514 1513 1511 1509 1508 1506 1504 1503 1501 1500 1498 1497 1495 1493 1491 1489 1487 1486 1485 1485 1483 1484 1485 1476 1471 1472 1471 1473 1475 1477 1480 1482 1484 1486 1488 1488 1488 1488 1488 1487 1485 1485 1483 1480 1481 1479 1475 1476 1479 1480 1481 1479 1480 1488 1492 1492 1495 1497 1499 1502 1503 1506 1509 1508 1510 1512 1513 1520 1523 1521 1525 1527 1530 1533 1536 1540 1543 1546 1548
1526 1525 1523 1522 1521 1519 1518 1516 1515 1513 1512 1510 1509 1507 1505 1504 1502 1500 1499 1497 1496 1494 1492 1490 1488 1487 1485 1484 1484 1483 1485 1484 1474 1470 1472 1471 1473 1474 1477 1480 1481 1484 1485 1486 1486 1487 1487 1486 1487 1486 1484 1482 1479 1479 1477 1472 1474 1482 1482 1476 1478 1481 1487 1491 1491 1494 1496 1498 1501 1503 1506 1509 1510 1513 1513 1514 1518 1519 1519 1524 1528 1532 1535 1537 1540 1542 1545 1547
1525 1524 1523 1521 1520 1519 1517 1516 1514 1512 1511 1509 1508 1506 1504 1503 1501 1499 1497 1496 1494 1493 1491 1489 1488 1487 1485 1484 1483 1482 1483 1477 1471 1471 1472 1472 1474 1474 1476 1479 1480 1483 1483 1485 1485 1485 1485 1485 1487 1484 1483 1483 1478 1475 1474 1471 1471 1480 1483 1477 1479 1482 1485 1489 1491 1494 1496 1498 1501 1504 1508 1509 1511 1515 1515 1515 1517 1518 1520 1525 1529 1533 1536 1539 1541 1543 1545 1547
1525 1523 1522 1520 1519 1518 1516 1515 1513 1511 1510 1508 1506 1505 1503 1502 1500 1498 1496 1495 1493 1491 1490 1488 1487 1486 1485 1484 1482 1482 1480 1473 1470 1471 1472 1473 1474 1474 1476 1477 1479 1481 1482 1483 1483 1483 1485 1485 1485 1483 1483 1482 1476 1473 1471 1471 1472 1477 1481 1478 1479 1482 1485 1489 1491 1493 1496 1498 1502 1505 1508 1511 1512 1514 1515 1517 1519 1519 1522 1526 1530 1533 1537 1539 1542 1544 1545 1548
1524 1522 1521 1520 1518 1517 1515 1514 1512 1511 1509 1507 1505 1504 1502 1500 1499 1497 1495 1493 1492 1490 1489 1487 1487 1485 1484 1483 1483 1483 1476 1470 1470 1471 1472 1473 1474 1474 1475 1476 1478 1480 1481 1482 1482 1483 1484 1484 1483 1482 1481 1477 1474 1473 1468 1476 1481 1476 1477 1479 1479 1483 1485 1488 1490 1493 1497 1500 1503 1507 1510 1512 1513 1515 1517 1519 1520 1522 1524 1527 1530 1533 1537 1540 1542 1544 1545 1548
1522 1521 1520 1518 1517 1515 1514 1513 1511 1509 1508 1506 1504 1502 1501 1499 1498 1496 1494 1492 1491 1489 1487 1487 1485 1484 1483 1482 1483 1482 1473 1469 1470 1470 1471 1473 1473 1474 1475 1476 1478 1479 1480 1481 1480 1481 1482 1482 1481 1480 1480 1474 1471 1472 1467 1476 1481 1474 1475 1479 1480 1483 1485 1487 1490 1494 1499 1502 1505 1509 1512 1513 1514 1517 1521 1521 1521 1523 1525 1528 1531 1533 1537 1539 1542 1544 1545 1548
1521 1520 1518 1517 1516 1514 1513 1511 1510 1508 1507 1505 1503 1501 1499 1498 1496 1495 1493 1491 1490 1488 1487 1485 1484 1483 1482 1481 1482 1478 1470 1469 1471 1470 1472 1471 1472 1473 1474 1475 1477 1478 1479 1479 1479 1480 1481 1481 1479 1480 1480 1475 1471 1471 1468 1471 1474 1473 1476 1480 1482 1482 1485 1487 1490 1495 1499 1504 1507 1508 1512 1514 1515 1519 1522 1521 1522 1525 1526 1528 1531 1533 1536 1538 1540 1542 1545 1547
1520 1519 1517 1516 1514 1513 1512 1510 1508 1507 1505 1504 1502 1500 1498 1496 1495 1493 1492 1490 1489 1487 1486 1484 1483 1482 1481 1480 1477 1471 1468 1470 1471 1471 1471 1470 1471 1472 1473 1475 1476 1477 1478 1478 1478 1479 1481 1480 1478 1480 1478 1475 1474 1473 1471 1470 1470 1472 1476 1485 1487 1484 1488 1488 1488 1494 1498 1504 1506 1507 1517 1521 1519 1521 1521 1521 1524 1526 1527 1529 1531 1532 1535 1537 1538 1541 1543 1545
1519 1517 1516 1514 1513 1511 1510 1509 1507 1506 1504 1502 1500 1498 1497 1494 1493 1492 1490 1489 1487 1486 1484 1483 1482 1481 1481 1477 1469 1467 1468 1469 1470 1471 1470 1470 1471 1471 1473 1475 1475 1477 1478 1478 1478 1478 1480 1478 1476 1477 1475 1474 1475 1474 1471 1468 1471 1475 1477 1486 1493 1495 1496 1488 1487 1494 1496 1502 1502 1507 1529 1533 1523 1521 1521 1523 1524 1526 1528 1530 1531 1532 1534 1535 1537 1540 1542 1544
1517 1516 1514 1513 1512 1510 1509 1507 1506 1504 1502 1501 1499 1497 1495 1493 1491 1490 1489 1487 1486 1485 1483 1482 1482 1480 1480 1473 1466 1466 1467 1467 1468 1470 1470 1470 1470 1471 1473 1475 1475 1477 1478 1478 1478 1478 1478 1477 1476 1475 1473 1473 1474 1472 1470 1470 1473 1478 1483 1489 1496 1506 1505 1488 1486 1493 1498 1502 1497 1505 1532 1535 1523 1520 1521 1523 1524 1525 1528 1529 1531 1532 1533 1535 1536 1539 1541 1542
1516 1514 1513 1512 1510 1509 1507 1506 1504 1502 1501 1499 1497 1496 1493 1491 1489 1488 1487 1485 1484 1483 1482 1481 1481 1480 1479 1471 1466 1466 1466 1466 1466 1467 1470 1470 1469 1471 1472 1474 1475 1476 1478 1478 1478 1478 1477 1476 1476 1474 1472 1471 1472 1474 1476 1478 1477 1479 1494 1502 1499 1506 1506 1491 1486 1491 1498 1501 1494 1506 1530 1532 1522 1520 1520 1522 1524 1524 1527 1529 1530 1532 1533 1535 1536 1537 1540 1542
1514 1513 1512 1510 1508 1507 1506 1504 1502 1501 1499 1497 1496 1494 1492 1489 1487 1486 1484 1482 1482 1481 1480 1481 1481 1481 1480 1471 1466 1466 1466 1465 1465 1467 1469 1469 1470 1471 1472 1474 1475 1476 1478 1478 1478 1477 1476 1475 1474 1473 1472 1472 1474 1477 1483 1489 1489 1485 1496 1508 1504 1505 1507 1499 1491 1487 1492 1498 1495 1504 1524 1528 1521 1518 1519 1521 1523 1524 1525 1527 1528 1531 1532 1533 1535 1537 1539 1541
1513 1511 1510 1508 1507 1506 1504 1503 1501 1499 1498 1496 1494 1492 1490 1487 1485 1483 1481 1481 1481 1479 1480 1481 1480 1481 1476 1468 1465 1464 1463 1464 1465 1467 1467 1468 1470 1470 1472 1473 1474 1476 1476 1477 1478 1476 1476 1475 1474 1474 1473 1473 1474 1478 1493 1504 1503 1496 1496 1503 1502 1501 1505 1505 1499 1488 1487 1496 1499 1502 1514 1522 1518 1514 1518 1519 1521 1523 1524 1526 1527 1529 1531 1532 1534 1536 1537 1539
1512 1510 1508 1507 1505 1504 1503 1501 1500 1498 1496 1495 1493 1491 1488 1486 1483 1481 1479 1479 1480 1479 1480 1479 1481 1484 1474 1463 1462 1461 1461 1463 1464 1465 1466 1467 1469 1469 1471 1472 1473 1475 1475 1476 1476 1475 1476 1473 1472 1477 1477 1477 1476 1481 1498 1504 1500 1500 1500 1503 1502 1499 1502 1504 1501 1490 1487 1495 1502 1505 1513 1517 1515 1513 1516 1518 1519 1521 1522 1524 1526 1527 1529 1530 1532 1534 1536 1538
1510 1508 1507 1505 1504 1503 1501 1500 1498 1496 1494 1493 1492 1490 1487 1484 1482 1480 1479 1479 1479 1479 1479 1476 1477 1479 1470 1459 1459 1460 1460 1462 1462 1463 1465 1465 1467 1468 1470 1472 1473 1473 1474 1477 1476 1473 1474 1474 1477 1485 1486 1483 1479 1479 1487 1487 1484 1490 1493 1497 1501 1502 1501 1497 1494 1486 1484 1496 1503 1506 1514 1516 1516 1515 1514 1516 1517 1519 1522 1522 1524 1526 1527 1529 1530 1532 1534 1536
1508 1507 1505 1504 1502 1501 1500 1499 1497 1495 1493 1492 1491 1489 1486 1484 1482 1480 1479 1478 1476 1475 1474 1472 1471 1468 1462 1458 1459 1460 1459 1460 1461 1461 1463 1465 1466 1467 1468 1470 1471 1472 1473 1476 1477 1471 1472 1482 1486 1488 1486 1480 1474 1470 1471 1470 1472 1479 1485 1490 1494 1497 1499 1491 1488 1481 1478 1496 1504 1502 1510 1513 1514 1514 1511 1514 1515 1516 1519 1521 1523 1525 1526 1528 1529 1531 1532 1535
1507 1505 1503 1502 1501 1499 1498 1497 1496 1495 1493 1491 1490 1489 1487 1486 1485 1483 1479 1475 1472 1471 1469 1468 1468 1464 1459 1456 1457 1459 1458 1458 1459 1460 1462 1464 1464 1465 1466 1467 1470 1473 1472 1471 1473 1470 1474 1486 1486 1480 1476 1472 1468 1464 1464 1467 1469 1473 1479 1485 1488 1491 1492 1485 1482 1479 1475 1492 1503 1499 1507 1512 1510 1511 1509 1510 1513 1514 1515 1518 1521 1523 1525 1527 1528 1530 1532 1534
1506 1504 1501 1501 1499 1498 1497 1495 1495 1494 1492 1490 1489 1488 1487 1486 1486 1484 1480 1474 1467 1467 1467 1464 1463 1461 1457 1455 1454 1456 1458 1457 1458 1459 1460 1462 1463 1464 1463 1465 1470 1473 1470 1469 1474 1477 1482 1486 1479 1472 1468 1466 1466 1462 1463 1467 1469 1474 1475 1480 1488 1486 1486 1483 1478 1476 1476 1490 1502 1499 1506 1512 1507 1506 1507 1507 1509 1511 1512 1514 1517 1520 1523 1526 1527 1529 1531 1533
1504 1502 1501 1499 1496 1496 1495 1494 1494 1491 1490 1489 1488 1487 1486 1485 1484 1483 1481 1475 1466 1461 1462 1460 1458 1456 1454 1452 1450 1451 1454 1454 1456 1456 1457 1459 1459 1461 1462 1464 1470 1471 1470 1472 1476 1483 1487 1482 1471 1466 1465 1467 1469 1465 1464 1469 1470 1474 1474 1479 1486 1481 1484 1491 1484 1478 1478 1484 1494 1498 1504 1509 1506 1505 1505 1504 1506 1507 1509 1511 1513 1517 1519 1522 1525 1527 1529 1531
1502 1500 1500 1497 1495 1494 1492 1493 1491 1490 1489 1488 1487 1486 1486 1485 1484 1482 1478 1475 1468 1456 1452 1453 1452 1452 1449 1446 1447 1448 1449 1451 1453 1453 1455 1457 1456 1459 1460 1462 1467 1471 1470 1470 1472 1479 1480 1472 1464 1463 1464 1466 1470 1468 1466 1474 1475 1472 1471 1474 1478 1474 1476 1483 1481 1479 1481 1483 1487 1497 1512 1514 1507 1509 1508 1502 1503 1503 1505 1508 1510 1513 1515 1519 1523 1525 1527 1529
1500 1500 1498 1495 1494 1492 1491 1491 1489 1489 1488 1486 1486 1485 1486 1485 1482 1481 1478 1477 1472 1453 1444 1446 1446 1446 1443 1443 1445 1443 1445 1448 1449 1451 1453 1453 1455 1457 1458 1459 1465 1471 1470 1468 1471 1476 1472 1464 1461 1464 1465 1464 1468 1470 1467 1472 1478 1476 1469 1463 1465 1467 1469 1472 1474 1480 1494 1499 1489 1494 1525 1529 1509 1507 1509 1503 1502 1503 1502 1504 1506 1509 1512 1515 1519 1521 1524 1526
1499 1498 1496 1495 1493 1489 1490 1489 1487 1489 1485 1485 1486 1483 1485 1482 1481 1482 1478 1482 1477 1452 1441 1441 1440 1440 1438 1439 1441 1441 1448 1448 1444 1448 1450 1452 1453 1453 1457 1458 1460 1466 1465 1463 1468 1470 1465 1458 1458 1462 1465 1465 1467 1469 1464 1464 1477 1482 1466 1454 1455 1461 1468 1474 1475 1482 1499 1505 1487 1484 1515 1531 1518 1509 1505 1502 1504 1503 1501 1501 1502 1505 1508 1510 1513 1517 1520 1522
1497 1496 1494 1494 1491 1489 1488 1486 1487 1487 1484 1485 1483 1482 1483 1480 1483 1482 1481 1495 1481 1443 1434 1436 1433 1434 1432 1434 1437 1441 1452 1449 1443 1446 1445 1450 1452 1450 1457 1458 1458 1461 1455 1459 1472 1468 1458 1458 1460 1460 1463 1466 1469 1469 1461 1458 1474 1479 1458 1449 1456 1460 1467 1473 1474 1481 1487 1489 1486 1481 1495 1519 1524 1511 1501 1501 1505 1506 1503 1501 1500 1501 1503 1506 1509 1512 1515 1518
1494 1493 1493 1492 1491 1490 1486 1484 1486 1484 1484 1484 1480 1483 1482 1480 1485 1480 1490 1510 1474 1427 1427 1431 1428 1430 1429 1432 1435 1437 1444 1442 1443 1446 1441 1447 1450 1448 1454 1454 1456 1458 1449 1458 1475 1465 1453 1458 1459 1459 1463 1466 1465 1462 1454 1454 1468 1466 1450 1449 1456 1458 1463 1466 1471 1479 1479 1486 1498 1490 1490 1516 1527 1509 1500 1502 1506 1508 1505 1500 1498 1498 1500 1503 1506 1509 1512 1514
1492 1491 1491 1490 1490 1489 1486 1484 1483 1483 1484 1481 1480 1483 1479 1482 1485 1480 1498 1506 1457 1421 1428 1428 1426 1430 1428 1431 1434 1434 1437 1437 1440 1442 1440 1445 1447 1446 1451 1449 1449 1453 1449 1453 1464 1458 1449 1450 1450 1452 1461 1462 1457 1451 1446 1451 1459 1453 1446 1451 1454 1455 1458 1463 1472 1480 1482 1495 1504 1491 1487 1510 1524 1511 1504 1508 1508 1505 1500 1496 1495 1496 1498 1500 1503 1506 1509 1511
1490 1489 1489 1487 1487 1487 1484 1482 1482 1482 1482 1480 1481 1480 1479 1483 1484 1492 1511 1493 1446 1428 1428 1425 1427 1428 1428 1433 1434 1433 1435 1435 1435 1436 1438 1442 1444 1445 1447 1447 1445 1450 1451 1449 1453 1451 1442 1441 1441 1444 1449 1450 1448 1446 1443 1446 1449 1446 1450 1457 1459 1459 1459 1464 1470 1475 1491 1505 1499 1485 1479 1492 1514 1514 1503 1501 1496 1491 1492 1493 1493 1492 1494 1496 1498 1502 1505 1508
1487 1487 1486 1485 1484 1484 1482 1480 1481 1481 1480 1480 1480 1479 1481 1482 1484 1502 1505 1468 1440 1434 1426 1426 1428 1424 1428 1434 1435 1434 1434 1434 1431 1433 1439 1440 1444 1446 1447 1450 1450 1452 1458 1455 1453 1449 1441 1442 1440 1436 1437 1438 1443 1446 1443 1440 1441 1447 1456 1462 1471 1474 1471 1474 1475 1477 1500 1511 1492 1479 1475 1483 1506 1511 1496 1485 1476 1475 1482 1486 1487 1487 1489 1490 1493 1497 1501 1504
1484 1484 1483 1482 1481 1480 1479 1478 1479 1480 1480 1480 1481 1480 1482 1486 1492 1498 1481 1454 1446 1436 1423 1427 1426 1422 1427 1431 1433 1434 1434 1436 1430 1430 1437 1441 1446 1448 1449 1453 1453 1461 1469 1463 1458 1454 1447 1443 1437 1434 1433 1432 1442 1452 1449 1444 1444 1452 1460 1467 1484 1493 1493 1498 1496 1492 1503 1502 1483 1474 1478 1485 1492 1487 1479 1475 1470 1469 1472 1475 1479 1483 1485 1488 1490 1494 1497 1500
1482 1480 1480 1479 1478 1476 1476 1476 1477 1479 1479 1479 1481 1479 1483 1495 1496 1481 1465 1458 1448 1426 1416 1421 1420 1420 1425 1429 1433 1431 1433 1437 1430 1428 1433 1437 1446 1448 1446 1445 1443 1456 1466 1461 1461 1462 1457 1447 1435 1437 1436 1428 1436 1452 1459 1457 1453 1458 1463 1471 1488 1499 1510 1517 1510 1505 1506 1495 1478 1472 1480 1489 1483 1470 1465 1465 1463 1463 1466 1470 1476 1479 1481 1485 1488 1491 1494 1496
1479 1477 1476 1474 1474 1473 1473 1474 1475 1476 1478 1478 1481 1481 1487 1497 1487 1466 1459 1453 1437 1423 1419 1418 1417 1420 1423 1428 1430 1426 1432 1436 1427 1427 1432 1436 1447 1450 1447 1444 1439 1445 1453 1456 1459 1460 1466 1462 1443 1439 1438 1430 1433 1441 1448 1451 1454 1456 1453 1461 1478 1486 1499 1511 1508 1508 1508 1497 1484 1478 1484 1490 1482 1467 1456 1453 1456 1460 1466 1470 1473 1476 1479 1482 1485 1489 1492 1494
1477 1475 1472 1470 1470 1469 1470 1472 1472 1474 1476 1477 1479 1483 1489 1489 1475 1463 1455 1441 1431 1430 1425 1416 1417 1425 1426 1426 1424 1419 1426 1433 1425 1425 1431 1436 1446 1447 1445 1444 1440 1439 1447 1458 1457 1450 1461 1460 1437 1428 1428 1427 1434 1433 1430 1442 1456 1453 1445 1458 1472 1470 1475 1489 1491 1491 1493 1496 1491 1483 1481 1475 1465 1457 1446 1448 1457 1460 1465 1468 1470 1476 1479 1480 1484 1486 1489 1493
1474 1471 1469 1466 1465 1466 1467 1469 1469 1471 1473 1476 1481 1483 1480 1472 1463 1455 1443 1432 1432 1431 1426 1420 1417 1425 1430 1427 1425 1420 1419 1424 1425 1427 1430 1433 1438 1440 1439 1438 1435 1435 1440 1450 1452 1448 1458 1453 1428 1423 1426 1422 1429 1430 1424 1438 1453 1449 1450 1462 1460 1451 1459 1480 1487 1479 1483 1500 1494 1479 1477 1469 1463 1462 1453 1451 1460 1461 1463 1467 1469 1473 1476 1478 1481 1483 1486 1490
1471 1467 1464 1462 1460 1462 1464 1466 1467 1469 1470 1474 1480 1476 1466 1458 1452 1444 1434 1429 1429 1426 1430 1432 1421 1420 1428 1427 1426 1422 1419 1422 1424 1426 1430 1432 1434 1433 1433 1432 1429 1429 1430 1436 1443 1440 1448 1451 1429 1423 1434 1425 1419 1426 1423 1424 1435 1447 1456 1455 1448 1450 1457 1471 1487 1488 1492 1505 1493 1476 1479 1478 1475 1477 1466 1458 1464 1465 1464 1466 1467 1469 1472 1475 1478 1480 1483 1486
1469 1465 1460 1457 1457 1458 1460 1463 1465 1467 1469 1473 1476 1468 1458 1452 1445 1438 1432 1430 1430 1427 1433 1437 1425 1416 1420 1424 1424 1418 1419 1426 1426 1426 1429 1432 1431 1426 1427 1429 1425 1424 1422 1426 1437 1433 1435 1451 1439 1423 1432 1427 1416 1428 1435 1426 1424 1435 1441 1437 1446 1469 1473 1472 1486 1494 1499 1505 1496 1480 1477 1476 1476 1477 1472 1467 1467 1467 1465 1465 1466 1468 1470 1472 1475 1478 1480 1482
1469 1465 1458 1454 1454 1454 1456 1461 1463 1465 1468 1471 1471 1464 1454 1448 1440 1434 1434 1433 1433 1434 1434 1431 1426 1420 1414 1414 1417 1413 1415 1424 1424 1425 1427 1430 1429 1419 1417 1423 1422 1421 1419 1419 1432 1432 1429 1448 1448 1425 1420 1423 1422 1433 1446 1442 1429 1427 1432 1434 1443 1459 1467 1469 1475 1480 1490 1500 1497 1489 1483 1477 1470 1464 1465 1466 1463 1462 1464 1463 1464 1467 1467 1468 1471 1474 1476 1478
1470 1467 1459 1453 1454 1454 1455 1460 1462 1464 1466 1465 1463 1457 1449 1444 1438 1433 1435 1435 1433 1434 1433 1426 1424 1423 1413 1408 1409 1408 1410 1415 1417 1421 1422 1423 1425 1418 1411 1414 1417 1417 1416 1416 1424 1428 1427 1440 1448 1432 1419 1426 1435 1435 1439 1444 1439 1437 1444 1449 1451 1451 1453 1460 1465 1465 1474 1488 1494 1495 1494 1482 1462 1451 1453 1457 1456 1456 1458 1460 1463 1464 1465 1466 1468 1470 1473 1476
1471 1468 1460 1455 1455 1455 1457 1461 1461 1462 1463 1460 1456 1452 1446 1441 1436 1431 1432 1432 1429 1427 1425 1422 1421 1419 1413 1409 1408 1405 1406 1410 1410 1414 1417 1416 1420 1420 1409 1405 1409 1412 1415 1419 1421 1424 1428 1435 1442 1439 1432 1435 1436 1425 1423 1430 1433 1437 1444 1447 1451 1453 1455 1467 1476 1466 1461 1473 1481 1487 1496 1484 1458 1446 1448 1450 1450 1452 1453 1457 1461 1461 1463 1466 1467 1470 1473 1475
1472 1467 1458 1456 1458 1457 1458 1460 1458 1457 1458 1456 1452 1448 1443 1438 1434 1431 1429 1428 1426 1421 1416 1415 1414 1412 1409 1406 1406 1405 1407 1409 1406 1407 1410 1409 1410 1411 1403 1397 1401 1405 1411 1419 1418 1414 1418 1427 1436 1438 1433 1431 1425 1415 1416 1421 1422 1428 1435 1436 1441 1447 1453 1470 1482 1471 1462 1466 1466 1472 1489 1482 1455 1444 1446 1447 1448 1450 1452 1456 1458 1459 1461 1463 1466 1469 1472 1474
1473 1465 1455 1454 1458 1458 1458 1458 1456 1454 1452 1449 1447 1443 1440 1436 1432 1430 1428 1426 1424 1418 1414 1410 1408 1406 1404 1401 1403 1406 1407 1408 1405 1401 1402 1402 1399 1396 1392 1392 1396 1399 1405 1414 1414 1409 1414 1424 1435 1438 1430 1423 1418 1412 1412 1414 1420 1430 1433 1431 1435 1442 1446 1455 1462 1460 1463 1467 1465 1474 1490 1481 1456 1444 1444 1445 1447 1449 1451 1453 1455 1458 1460 1462 1466 1469 1471 1474
1471 1463 1454 1453 1455 1455 1456 1456 1454 1452 1448 1445 1443 1439 1436 1432 1428 1427 1426 1424 1420 1416 1413 1409 1404 1401 1398 1396 1398 1401 1404 1408 1406 1398 1396 1397 1392 1386 1384 1386 1391 1395 1399 1405 1406 1408 1417 1424 1432 1443 1446 1441 1437 1433 1428 1423 1424 1432 1433 1430 1431 1435 1440 1446 1449 1452 1463 1466 1463 1475 1488 1476 1456 1447 1444 1445 1446 1448 1450 1451 1453 1457 1459 1462 1465 1467 1469 1472
1470 1464 1455 1453 1454 1453 1451 1450 1450 1448 1445 1443 1440 1436 1434 1429 1424 1423 1422 1420 1416 1412 1412 1408 1401 1398 1396 1396 1398 1397 1398 1404 1405 1397 1394 1393 1386 1379 1378 1380 1385 1388 1390 1393 1393 1400 1414 1421 1425 1441 1456 1459 1456 1450 1443 1435 1430 1430 1430 1429 1429 1431 1437 1446 1451 1459 1468 1464 1458 1468 1478 1470 1456 1450 1448 1447 1447 1449 1450 1450 1453 1456 1457 1460 1462 1465 1468 1469
1473 1468 1459 1453 1451 1450 1448 1447 1447 1446 1443 1442 1440 1435 1432 1428 1421 1418 1417 1416 1413 1409 1408 1404 1398 1399 1401 1401 1402 1401 1397 1398 1400 1397 1396 1396 1391 1382 1376 1375 1378 1381 1383 1386 1387 1393 1408 1415 1418 1428 1439 1443 1443 1435 1425 1425 1431 1433 1432 1430 1430 1430 1431 1440 1451 1460 1463 1462 1461 1462 1464 1466 1461 1454 1451 1449 1447 1449 1449 1450 1452 1454 1456 1458 1460 1464 1465 1467
1475 1470 1463 1460 1456 1451 1449 1446 1445 1445 1442 1441 1440 1435 1430 1426 1420 1416 1413 1412 1409 1406 1404 1401 1399 1404 1407 1405 1407 1407 1400 1396 1396 1396 1397 1398 1394 1386 1378 1373 1372 1376 1378 1381 1383 1391 1406 1416 1415 1419 1423 1422 1423 1420 1413 1417 1426 1430 1430 1430 1430 1430 1430 1437 1448 1450 1450 1459 1466 1458 1453 1460 1461 1453 1449 1448 1446 1446 1446 1447 1449 1452 1454 1457 1459 1461 1463 1465
1474 1469 1466 1466 1463 1457 1455 1451 1448 1447 1443 1438 1435 1432 1429 1426 1421 1418 1415 1411 1407 1404 1404 1404 1403 1404 1406 1406 1410 1411 1406 1401 1398 1397 1397 1397 1395 1391 1385 1375 1369 1369 1374 1379 1381 1386 1403 1414 1411 1412 1418 1415 1413 1413 1411 1414 1420 1422 1425 1427 1427 1429 1431 1436 1440 1439 1441 1453 1458 1451 1449 1453 1451 1446 1444 1442 1441 1443 1443 1443 1446 1449 1453 1456 1458 1460 1462 1463
1474 1470 1467 1468 1466 1461 1459 1456 1451 1448 1443 1437 1433 1429 1427 1425 1421 1417 1414 1414 1411 1403 1403 1408 1407 1403 1403 1403 1407 1413 1412 1409 1407 1402 1398 1398 1398 1397 1397 1389 1375 1366 1368 1378 1381 1381 1397 1410 1406 1408 1416 1414 1411 1410 1409 1412 1417 1419 1422 1422 1422 1425 1426 1428 1431 1430 1433 1440 1442 1443 1447 1447 1440 1438 1437 1434 1434 1437 1439 1442 1445 1447 1451 1454 1456 1459 1460 1462
1476 1475 1471 1468 1465 1461 1458 1455 1452 1448 1442 1436 1433 1428 1423 1422 1419 1415 1411 1415 1418 1409 1404 1407 1406 1402 1402 1401 1406 1413 1410 1407 1409 1405 1399 1400 1399 1399 1401 1397 1385 1375 1370 1377 1381 1382 1395 1408 1403 1404 1417 1418 1411 1409 1408 1411 1418 1421 1422 1420 1419 1422 1423 1424 1426 1425 1428 1434 1434 1437 1444 1443 1433 1427 1427 1429 1432 1434 1438 1441 1444 1446 1449 1451 1454 1456 1458 1460
1478 1477 1475 1471 1465 1460 1457 1454 1451 1449 1443 1436 1432 1427 1422 1419 1416 1413 1409 1409 1414 1413 1409 1408 1405 1401 1399 1400 1406 1409 1403 1399 1403 1401 1397 1399 1398 1397 1398 1394 1388 1386 1380 1377 1382 1386 1395 1406 1403 1406 1423 1425 1414 1411 1411 1410 1415 1423 1425 1422 1421 1423 1424 1423 1422 1422 1426 1430 1433 1438 1442 1439 1429 1423 1425 1429 1430 1433 1437 1439 1442 1445 1447 1449 1452 1454 1456 1457
1476 1476 1475 1474 1467 1461 1458 1454 1451 1450 1445 1438 1434 1429 1425 1421 1415 1414 1414 1409 1406 1409 1409 1407 1406 1404 1401 1402 1405 1404 1398 1397 1399 1398 1396 1396 1392 1390 1392 1388 1384 1386 1383 1377 1382 1388 1394 1405 1407 1412 1427 1427 1417 1414 1413 1414 1426 1434 1426 1420 1420 1422 1423 1422 1421 1421 1420 1419 1426 1434 1434 1428 1423 1422 1427 1431 1432 1434 1437 1437 1439 1442 1444 1448 1451 1452 1454 1456